Miscellaneous Local Product
Issued by NWS North Platte, NE

Home | Current Version | Previous Version | Text Only | Print | Product List | Glossary On
Versions: 1 2 3 4 5 6 7 8 9 10 11 12 13 14 15 16 17 18 19 20 21 22 23 24 25 26 27 28 29 30 31 32 33 34 35 36 37 38 39 40 41 42 43 44 45 46 47 48 49 50
000
AXUS43 KLBF 240910
MISLBF


WESTERN AND NORTH CENTRAL NEBRASKA HOURLY WEATHER ROUNDUP
NATIONAL WEATHER SERVICE NORTH PLATTE NE
400 AM CDT THU APR 24 2014

***STATIONS NOT REPORTING VARIABLES SUCH AS SKY/WEATHER OR
PRESSURE ARE PROVIDED BY THE NEBRASKA DEPARTMENT OF
ROADS...RAWS...AND APRS NETWORKS...AND ARE NOT UNDER
NATIONAL WEATHER SERVICE QUALITY CONTROL***

...OBSERVATIONS IN AND NEAR THE EASTERN PANHANDLE OF NEBRASKA...

CITY           SKY/WX    TMP DP  RH WIND       PRES   REMARKS
PINE RIDGE     PTCLDY    39  34  82 W7        29.87R WCI  34
CHADRON        PTCLDY    42  32  67 W8        29.88S
ALLIANCE       MOCLDY    40  31  70 NW5       29.87F
SIDNEY         MOCLDY    41  29  62 NW10      29.90R
WHITECLAY        N/A     36  31  81 SE3         N/A
CRESCENT LAKE    N/A     41  35  79 NW7         N/A
LISCO            N/A     41  32  71 W8          N/A
BIG SPRINGS      N/A     50  38  64 N7          N/A
LEWELLEN         N/A     45  35  67 W10         N/A
$$

...OBSERVATIONS IN SOUTHWEST NEBRASKA AND FAR NORTHEAST COLORADO...

CITY           SKY/WX    TMP DP  RH WIND       PRES   REMARKS
WRAY           CLOUDY    51  33  50 N18G28    29.86R
HOLYOKE        FAIR      46  36  66 NW10      29.87R
IMPERIAL       MOCLDY    50  34  54 N16       29.82R
OGALLALA       MOCLDY    48  35  60 N13       29.83S
NORTH PLATTE   MOCLDY    52  35  52 N16G24    29.78S
MCCOOK         CLOUDY    52  36  54 N6        29.76R
LEXINGTON      CLOUDY    54  41  62 N12       29.73F
PAXTON           N/A     52  38  59 N14         N/A
SUTHERLAND       N/A     46  33  62 SE10        N/A
GOTHENBURG       N/A     53  39  59 N6          N/A
CALLAWAY         N/A     51  39  64 N12         N/A
$$

...OBSERVATIONS IN NORTH CENTRAL NEBRASKA...

CITY           SKY/WX    TMP DP  RH WIND       PRES   REMARKS
VALENTINE      CLOUDY    49  34  56 NW12      29.78S
THEDFORD       CLOUDY    51  36  56 NW12      29.78F
AINSWORTH      CLOUDY    51  35  53 NW14      29.76F
O`NEILL        CLOUDY    54  35  49 NW18G24   29.70F
ORD            CLOUDY    50  42  74 NW13      29.71F
BROKEN BOW     CLOUDY    52  35  52 N16       29.73F
BROWNLEE         N/A     51  38  59 NW12        N/A
SPRINGVIEW       N/A     50  37  59 W6G14       N/A
DUNNING          N/A     51  34  53 S16         N/A
BREWSTER         N/A     53  35  51 W20         N/A
ROSE             N/A     53  38  56 SW14        N/A
NEWPORT          N/A     52  37  57 NW16        N/A
COMSTOCK         N/A     55  42  62 S10         N/A
CHAMBERS         N/A     51  38  60 N6          N/A
EWING            N/A     51  43  74 NW3         N/A
$$

...SOME WEATHER OBSERVATIONS FROM AROUND THE REGION...

CITY           SKY/WX    TMP DP  RH WIND       PRES   REMARKS
DENVER         CLOUDY    42  28  57 N15       29.98R
LARAMIE        CLEAR     27  11  51 W14       29.99S WCI  16
CHEYENNE       PTCLDY    34  11  38 NW13G24   29.96S WCI  25
SCOTTSBLUFF    MOCLDY    40  33  76 W12       29.92R WCI  33
RAPID CITY     CLEAR     34  23  64 NW10      29.85R WCI  26
PIERRE         CLOUDY    44  37  76 W10       29.75F
WINNER         FAIR      49  36  61 W15       29.75F
SIOUX FALLS    LGT RAIN  46  44  93 NE6       29.66R
OMAHA          RAIN      50  45  83 NE7       29.65R
GRAND ISLAND   LGT RAIN  51  47  86 N15G24    29.70R
KANSAS CITY    CLOUDY    68  48  48 S24G32    29.61R
WICHITA        MOCLDY    66  58  75 S18G28    29.58R
HAYS           CLOUDY    54  52  94 N14       29.74R
LIBERAL        MOCLDY    55  30  38 N30G44    29.77F
GOODLAND       CLOUDY    55  17  22 NW21      29.84R
$$



USA.gov is the U.S. government's official web portal to all federal, state and local government web resources and services.